Location: T�bingen+AIT
(48.5342°N, 9.0700°E)
Time: 15:05:29
(UTC+01:00)

Lacrosse 5 - Pass Details

Date: 14 September 2017
Orbit: 716 x 722 km, 57.0° (Epoch: 11 November)

Event Time Altitude Azimuth Distance (km) Brightness Sun altitude
Rises 21:16:39 0° 304° (NW) 3,136 6.9 -16.5°
Reaches altitude 10° 21:19:04 10° 301° (WNW) 2,213 5.7 -16.8°
Maximum altitude 21:24:03 57° 223° (SW) 847 2.3 -17.6°
Enters shadow 21:26:46 26° 155° (SSE) 1,399 2.9 -18.0°
